Flag for France Weather past 2 weeks in Paris, France

Now
57 °F

Passing clouds.


Feels Like: 56 °F
Forecast: 60 / 76 °F
Wind: 7 mph from Northwest

Location: Villacoublay

Current Time: Jul 29, 2014 at 5:16:20 AM

Latest Report: Jul 29, 2014 at 4:30 AM


Visibility: N/A

Pressure: 29.92 "Hg

Humidity: 88%

Dew point: 54 °F

Location of ParisLocation

Historic Weather in Paris — Graph

°F

Paris temperature yesterday

Maximum temperature yesterday: 73 °F (at 3:00 PM)
Minimum temperature yesterday: 61 °F (at 7:00 AM)
Average temperature yesterday: 67 °F

Past Weeks' High & Low Weather Summary

 TemperatureHumidityPressure
High93 °F (Jul 18, 4:00 PM)94% (Jul 14, 4:30 AM)30.18 "Hg (Jul 14, 4:30 AM)
Low54 °F (Jul 14, 4:30 AM)33% (Jul 24, 6:00 PM)29.74 "Hg (Jul 19, 6:00 PM)
Average71 °F67%29.99 "Hg
* Reported Jul 14 4:00 AM — Jul 29 4:00 AM, Paris, Weather by CustomWeather, © 2014

Note: Actual official high and low records may vary slightly from our data, if they occured in-between our weather recording intervals... More about our weather records

Advertising

Paris weather history for previous 24 hours

 ConditionsComfort  
Time TempWeatherWind HumidityBarometerVisibility
4:00 AM
Jul 29
57 °FClear.5 mph88%29.95 "HgN/A
3:30 AM59 °FPassing clouds.7 mph82%29.92 "HgN/A
3:00 AM59 °FClear.8 mph82%29.92 "HgN/A
2:30 AM61 °FPassing clouds.8 mph83%29.95 "HgN/A
2:00 AM61 °FPassing clouds.10 mph83%29.95 "HgN/A
1:30 AM63 °FMostly cloudy.9 mph77%29.95 "HgN/A
1:00 AM63 °FPassing clouds.10 mph77%29.95 "HgN/A
12:30 AM63 °FPassing clouds.6 mph77%29.95 "HgN/A
12:00 AM64 °FPassing clouds.6 mph73%29.95 "HgN/A
11:30 PM
Jul 28
66 °FPassing clouds.7 mph68%29.92 "HgN/A
11:00 PM66 °FPartly cloudy.9 mph68%29.95 "HgN/A
10:30 PM66 °FPassing clouds.9 mph68%29.92 "HgN/A
10:00 PM68 °FClear.6 mph60%29.92 "HgN/A
9:30 PM68 °FMild.6 mph60%29.92 "HgN/A
9:00 PM70 °FMild.8 mph57%29.92 "HgN/A
8:30 PM72 °FMostly cloudy.9 mph53%29.89 "HgN/A
8:00 PM73 °FBroken clouds.10 mph50%29.89 "HgN/A
7:30 PM72 °FPartly sunny.8 mph53%29.86 "HgN/A
7:00 PM73 °FPassing clouds.7 mph50%29.86 "HgN/A
6:30 PM73 °FPassing clouds.8 mph50%29.89 "HgN/A
6:00 PM73 °FPassing clouds.7 mph50%29.89 "HgN/A
5:30 PM73 °FClear.10 mph53%29.89 "HgN/A
5:00 PM72 °FClear.10 mph53%29.89 "HgN/A
4:30 PM73 °FClear.7 mph44%29.89 "HgN/A
4:00 PM73 °FClear.8 mph47%29.89 "HgN/A
3:30 PM73 °FBroken clouds.8 mph47%29.89 "HgN/A
3:00 PM73 °FClear.9 mph47%29.89 "HgN/A
2:30 PM70 °FClear.10 mph57%29.89 "HgN/A
2:00 PM70 °FBroken clouds.12 mph57%29.92 "HgN/A
1:30 PM72 °FScattered clouds.10 mph57%29.92 "HgN/A
1:00 PM70 °FBroken clouds.8 mph64%29.92 "HgN/A
12:30 PM68 °FScattered clouds.9 mph69%29.92 "HgN/A
12:00 PM68 °FBroken clouds.10 mph69%29.92 "HgN/A
11:30 AM66 °FBroken clouds.10 mph78%29.92 "HgN/A
11:00 AM64 °FScattered clouds.9 mph78%29.92 "HgN/A
10:30 AM64 °FBroken clouds.6 mph83%29.92 "HgN/A
10:00 AM63 °FBroken clouds.6 mph88%29.92 "HgN/A
9:30 AM61 °FMostly cloudy.10 mph94%29.92 "HgN/A
9:00 AM61 °FPartly sunny.10 mph94%29.92 "HgN/A
8:30 AM61 °FMostly cloudy.7 mph94%29.92 "HgN/A
8:00 AM61 °FBroken clouds.8 mph94%29.92 "HgN/A
7:30 AM61 °FPartly sunny.9 mph94%29.92 "HgN/A
7:00 AM61 °FMostly cloudy.12 mph94%29.92 "Hg4 mi
6:30 AM63 °FOvercast.8 mph88%29.92 "Hg4 mi
6:00 AM63 °FFog.7 mph94%29.92 "Hg3 mi
5:30 AM63 °FLight rain. Fog.3 mph94%29.92 "Hg3 mi
5:00 AM63 °FLight rain. Passing clouds.6 mph94%29.95 "Hg4 mi
Weather by CustomWeather, © 2014

See weather overviewHow to use our weather pages